Date,TemperatureHighF,TemperatureAvgF,TemperatureLowF,DewpointHighF,DewpointAvgF,DewpointLowF,HumidityHigh,HumidityAvg,HumidityLow,PressureMaxIn,PressureMinIn,WindSpeedMaxMPH,WindSpeedAvgMPH,GustSpeedMaxMPH,PrecipitationSumIn
2013-1-1,59.4,50.9,42.3,45.3,33.7,19.7,84,57,25,31.01,30.30,10,0,11,0.00
2013-1-2,68.5,57.4,44.2,32.6,24.2,17.2,61,30,17,31.01,29.94,15,3,19,0.00
2013-1-3,70.3,52.0,38.3,36.3,28.4,20.6,73,45,17,31.01,30.06,13,1,13,0.00
2013-1-4,65.3,49.5,37.8,36.3,26.5,22.5,67,44,20,31.01,30.92,8,0,8,0.00
2013-1-5,63.1,49.0,37.9,40.0,33.0,26.5,75,56,28,31.01,30.62,6,0,8,0.00
2013-1-6,58.5,51.7,45.7,49.9,42.7,37.7,89,72,48,31.01,30.47,10,1,11,0.00
2013-1-7,64.2,51.7,42.8,44.5,37.7,28.8,86,63,27,31.01,30.27,8,1,9,0.00
2013-1-8,66.4,52.3,40.5,49.8,41.7,33.8,83,68,44,31.01,30.68,6,0,6,0.00
2013-1-9,67.6,54.7,44.2,51.3,45.2,39.1,85,72,43,31.01,30.18,6,1,8,0.00
2013-1-10,59.7,53.8,46.8,49.7,36.3,20.0,87,55,26,31.01,30.71,11,2,13,0.00
2013-1-11,57.2,46.9,36.7,30.3,23.5,19.7,67,41,26,31.01,31.01,9,2,12,0.00
2013-1-12,57.6,44.4,34.5,29.1,25.1,21.1,66,48,27,31.01,31.01,6,1,9,0.00
2013-1-13,57.2,44.3,33.8,33.2,25.4,14.1,73,51,26,31.01,31.01,10,1,11,0.00
2013-1-14,57.2,49.3,43.5,14.9,9.8,5.1,28,20,17,31.01,31.01,19,6,23,0.00
2013-1-15,61.3,48.1,36.5,26.9,20.0,7.6,53,34,19,31.01,31.01,10,0,10,0.00
2013-1-16,68.4,51.0,38.1,35.3,30.3,23.6,68,47,23,31.01,31.01,8,1,9,0.00
2013-1-17,76.6,62.8,49.3,30.5,23.9,18.5,47,24,15,31.01,31.01,12,2,14,0.00
2013-1-18,76.6,57.8,43.9,34.1,30.5,25.7,58,39,20,31.01,31.01,8,0,8,0.00
2013-1-22,64.0,56.5,47.3,31.8,28.8,26.2,50,36,25,31.01,31.01,6,0,6,0.00
2013-1-23,70.2,63.5,52.0,43.1,37.7,30.0,53,39,33,31.01,31.01,8,0,9,0.00
2013-1-24,70.2,70.2,70.2,39.7,39.7,39.7,33,33,33,31.01,31.01,7,0,8,0.00
2013-1-25,70.2,70.2,70.2,39.7,39.7,39.7,33,33,33,31.01,31.01,10,0,10,0.00
2013-1-26,70.2,70.2,70.2,39.7,39.7,39.7,33,33,33,31.01,31.01,10,0,10,0.00
2013-1-27,70.2,70.2,70.2,39.7,39.7,39.7,33,33,33,31.01,31.01,11,1,11,0.00
2013-1-28,70.2,70.2,70.2,39.7,39.7,39.7,33,33,33,31.01,31.01,11,1,11,0.00
2013-1-29,70.2,70.2,70.2,39.7,39.7,39.7,33,33,33,31.01,31.01,6,0,8,0.00
2013-1-30,70.2,47.0,44.8,39.7,37.9,37.7,76,72,33,31.01,31.01,8,0,9,0.00
2013-1-31,44.8,44.8,44.8,37.7,37.7,37.7,76,76,76,31.01,31.01,11,1,11,0.00